Regional Weather Roundup
Issued by NWS

Home | Current Version | Previous Version | Text Only | Print | Product List | Glossary On
Versions: 1 2 3 4 5 6 7 8 9 10 11 12 13 14 15 16 17 18 19 20 21 22 23 24 25 26 27 28 29 30 31 32 33 34 35 36 37 38 39 40 41 42 43 44 45 46 47 48 49 50
000
ASUS44 KBMX 062010
RWRAL

ALABAMA REGIONAL WEATHER ROUNDUP
NATIONAL WEATHER SERVICE BIRMINGHAM AL
300 PM CDT WED MAY 06 2015

NOTE: "FAIR" INDICATES FEW OR NO CLOUDS BELOW 12,000 FEET
WITH NO SIGNIFICANT WEATHER AND/OR OBSTRUCTIONS TO VISIBILITY.

THE REMARK "TC" DENOTES TEMPERATURE IN DEGREES CELSIUS.

ALZ001>011-014-016>018-020-062100-
NORTH ALABAMA

CITY           SKY/WX    TMP DP  RH WIND       PRES   REMARKS
MUSCLE SHOALS  MOSUNNY   83  48  29 SE10      30.13F
HUNTSVILLE     MOSUNNY   84  49  29 SE13G21   30.12F
DECATUR        SUNNY     80  53  39 E9        30.13F
HALEYVILLE       N/A     81  53  37 MISG      30.15F
GADSDEN        CLOUDY    81  52  36 E5        30.12F
$$

ALZ012-013-022-023-030>036-040>044-062100-
WEST CENTRAL ALABAMA

CITY           SKY/WX    TMP DP  RH WIND       PRES   REMARKS
TUSCALOOSA     MOSUNNY   81  57  43 SE9       30.10F
$$

ALZ015-024>027-033>036-040>044-062100-
CENTRAL ALABAMA

CITY           SKY/WX    TMP DP  RH WIND       PRES   REMARKS
BIRMINGHAM     MOSUNNY   81  53  37 E10       30.14F
MONTGOMERY     PTSUNNY   84  55  36 E9        30.10S
SHELBY CO ARPT SUNNY     81  52  36 VRB6      30.12F
MAXWELL AFB    SUNNY     82  54  36 E10       30.09F
GREENVILLE     FAIR      83  55  38 VRB5      30.09F
$$

ALZ019-021-028-029-037-038-045>048-062100-
EAST CENTRAL ALABAMA

CITY           SKY/WX    TMP DP  RH WIND       PRES   REMARKS
ANNISTON       SUNNY     82  50  32 VRB5      30.12F
ALEXANDER CITY MOSUNNY   80  49  34 E10       30.13F
AUBURN         MOSUNNY   79  52  38 SE7       30.13F
$$

ALZ051>064-062100-
SOUTHWEST ALABAMA

CITY           SKY/WX    TMP DP  RH WIND       PRES   REMARKS
MOBILE         PTSUNNY   83  60  45 SE9       30.07F
BROOKLEY FIELD PTSUNNY   80  68  66 S10G17    30.08F
EVERGREEN      LGT RAIN  84  57  39 SE6       30.08F
$$

ALZ049-050-065>069-062100-
SOUTHEAST ALABAMA

CITY           SKY/WX    TMP DP  RH WIND       PRES   REMARKS
DOTHAN         PTSUNNY   81  58  45 NE9       30.12F
OZARK          MOSUNNY   82  57  42 E9        30.08F
TROY           SUNNY     84  57  39 N9        30.10F
EUFAULA        FAIR      86  60  41 NE8       30.08F
$$


USA.gov is the U.S. government's official web portal to all federal, state and local government web resources and services.